GFSNW_sfc_dewp_000.txt.gz
Dewpoint
51 51 51 51 50 49 45 34 19 36 43 31 23 19 15 21 7 1 0 8 7 10 15 17 17 17 18 20 22 24 27 24 23 13 12 10 13 20 24 22 31 25 24 20
51 50 50 50 50 49 40 32 25 26 33 16 12 20 17 17 16 9 5 2 7 10 14 18 16 15 14 15 21 25 26 25 24 22 10 12 11 14 20 23 25 33 24 23
50 50 50 50 49 49 42 33 19 19 33 25 27 25 27 23 18 16 13 13 12 9 13 17 18 18 15 21 19 54 40 23 26 19 23 15 16 11 13 16 21 25 23 26
49 49 50 50 49 49 42 32 23 32 19 27 34 34 31 25 20 21 22 21 20 16 17 18 19 21 22 26 41 37 40 37 30 24 20 18 16 11 11 14 18 23 24 24
49 49 50 50 48 48 41 34 32 35 31 30 27 26 25 25 22 25 25 25 18 18 21 22 19 19 23 21 27 28 32 37 36 31 25 23 19 18 13 11 13 16 18 22
48 48 49 49 49 48 41 37 36 33 28 22 23 21 22 23 28 28 25 27 29 28 27 29 29 30 32 32 31 33 36 36 39 33 29 27 25 24 19 16 13 16 17 22
48 48 48 49 49 49 47 41 36 35 25 20 22 22 26 25 27 30 29 29 27 29 30 29 28 28 30 32 33 34 40 44 39 33 36 30 25 26 23 19 15 17 23 26
48 48 48 48 49 48 48 47 42 38 31 25 24 24 25 27 29 30 31 29 27 29 27 27 29 27 32 31 31 34 38 40 36 32 31 32 31 33 25 23 21 18 25 29
49 48 48 48 48 49 49 48 47 42 34 24 27 25 31 29 29 27 27 32 33 30 24 27 31 24 26 26 29 35 37 42 37 36 32 31 41 45 47 46 34 26 24 31
48 48 48 47 47 48 49 48 49 44 38 31 30 26 26 29 29 28 29 34 31 36 37 29 28 24 26 23 31 37 39 40 33 34 35 36 47 46 47 40 34 29 39 42
48 48 47 47 46 46 48 47 48 44 39 37 36 32 29 33 34 31 33 32 35 36 43 37 28 27 28 27 35 41 40 38 33 37 38 35 48 45 46 51 52 50 50 50
47 47 47 46 46 45 47 44 49 51 43 37 38 36 35 34 31 30 32 33 33 31 39 41 43 43 39 35 29 42 36 37 35 39 36 50 49 51 52 52 52 51 52 52
47 46 46 46 46 46 47 47 48 45 39 35 33 32 33 33 32 36 32 32 33 38 38 36 44 45 46 44 39 39 43 44 42 46 47 49 50 50 50 50 49 50 51 49
46 45 45 45 45 45 46 46 46 44 39 30 25 31 32 32 33 32 35 34 35 40 38 43 42 46 46 48 50 48 45 47 46 46 50 47 49 49 49 48 50 51 51 51
45 45 45 45 45 46 49 47 43 45 40 27 26 27 34 33 32 35 34 35 34 38 37 46 43 40 44 47 48 47 49 50 45 42 51 52 48 47 46 46 46 48 49 49
46 46 46 44 45 46 42 35 43 43 41 31 27 32 35 38 37 34 36 37 37 37 35 46 46 39 44 47 44 45 49 51 52 49 49 48 48 46 43 44 44 44 44 46
46 46 47 46 47 43 38 37 39 44 40 37 33 32 36 39 39 38 37 38 37 35 36 40 47 47 45 44 42 46 49 49 48 47 48 46 49 49 47 44 42 43 43 43
45 46 47 47 48 47 38 41 45 43 42 37 35 35 38 37 32 33 36 35 36 36 34 45 47 48 45 43 46 46 47 48 49 49 48 44 45 50 48 44 42 42 44 43
47 47 46 44 41 35 40 46 49 44 39 38 37 34 35 35 32 34 35 32 30 38 41 48 46 44 43 46 47 47 46 46 48 49 50 49 49 49 47 47 44 43 44 44
47 44 40 38 41 48 46 47 40 40 40 38 34 33 35 36 35 31 30 33 34 40 46 48 44 43 47 49 50 50 48 50 49 47 46 48 49 49 49 47 47 45 45 46
42 41 40 42 47 43 40 38 38 40 38 37 36 37 37 40 40 40 36 35 37 38 43 44 42 40 46 50 50 51 52 52 52 51 51 51 51 45 45 46 46 46 47 47
45 46 46 44 42 40 36 36 36 38 35 39 38 37 39 40 43 38 38 33 34 35 43 42 37 43 47 49 49 50 52 51 51 49 48 45 45 46 47 46 46 47 48 49
47 44 40 39 40 36 36 34 36 39 38 40 38 38 37 42 39 37 37 32 38 38 40 40 43 48 49 50 49 48 48 47 46 44 43 42 43 44 46 47 47 46 46 49
41 39 35 35 35 38 39 40 41 40 40 40 40 41 44 38 35 36 34 37 41 36 35 40 46 48 49 49 48 45 44 43 43 43 43 42 43 44 46 47 49 47 49 51
39 37 33 36 40 41 40 41 39 39 40 41 41 38 38 35 36 36 37 35 37 40 38 45 50 51 50 50 48 46 45 45 45 45 44 44 44 43 45 49 50 50 51 52
43 41 39 41 38 35 34 37 39 40 40 43 38 34 33 36 39 39 39 37 36 41 45 49 51 52 51 52 50 49 49 48 47 47 47 45 46 47 47 47 48 50 52 53
38 38 40 39 37 36 34 37 38 41 38 38 36 37 38 39 38 38 40 36 39 47 49 52 52 52 53 53 52 51 50 51 49 48 48 49 49 46 45 47 49 48 50 52

GFSNW_sfc_dewp_003.txt.gz
Dewpoint
52 52 52 52 51 50 46 34 27 31 36 32 27 25 22 24 14 11 6 6 10 15 14 15 15 15 16 14 17 18 21 20 22 19 16 13 11 13 14 21 31 23 24 22
51 51 51 51 50 50 40 33 30 29 24 17 16 20 18 18 18 16 13 8 6 9 12 17 17 16 15 17 19 22 22 21 22 23 18 16 15 13 12 14 23 33 24 23
49 50 51 51 50 49 43 35 25 22 22 21 17 17 17 16 16 16 18 17 14 9 10 13 16 15 15 15 16 51 38 24 26 20 24 17 16 13 11 11 16 23 22 26
49 50 51 50 49 49 43 37 28 26 24 21 29 31 33 25 28 24 22 21 17 15 15 12 13 15 17 15 33 27 28 30 27 23 22 20 14 8 8 11 16 19 22 24
49 49 50 50 49 48 41 39 35 32 28 29 27 27 25 19 22 24 25 21 19 18 20 20 14 14 21 23 22 27 28 33 32 25 21 19 18 16 10 10 10 14 17 20
49 49 49 50 49 48 44 43 45 37 30 25 21 18 22 22 16 18 27 28 31 29 24 28 29 29 23 22 28 30 34 34 37 33 29 28 24 21 20 19 16 13 14 20
49 49 49 49 49 49 48 46 43 37 26 24 25 26 18 22 22 28 25 27 33 34 29 29 28 26 28 29 29 24 33 36 33 30 34 29 28 32 26 23 22 20 20 20
48 48 49 49 49 49 50 48 42 39 31 25 25 25 24 23 24 23 21 24 31 33 29 27 28 25 27 26 26 31 35 36 33 32 31 38 34 39 38 40 35 27 25 23
48 48 49 48 49 50 50 51 48 42 36 30 32 33 31 27 24 22 21 25 33 34 30 26 27 21 23 23 21 24 30 38 36 36 32 30 31 42 43 40 34 31 30 29
48 48 48 48 48 48 51 48 49 43 37 37 34 31 33 32 34 33 35 34 33 32 29 23 20 17 20 19 22 26 25 31 30 32 33 31 44 43 43 36 38 51 49 47
48 48 48 48 48 47 47 48 50 45 40 38 37 34 32 28 28 30 40 30 34 34 36 33 25 22 22 23 27 29 26 30 29 32 32 30 45 42 40 51 51 51 51 50
48 47 47 47 46 46 46 45 50 49 43 37 38 37 35 33 31 28 28 32 34 33 41 43 41 42 39 32 27 29 28 31 30 31 34 51 50 50 51 51 51 51 51 49
47 47 46 46 47 46 48 46 49 48 43 38 34 31 33 33 32 31 28 29 33 38 40 36 43 43 49 42 35 32 40 37 35 40 48 49 49 50 49 49 49 50 51 52
46 47 46 46 46 46 47 48 50 47 43 34 28 28 29 31 31 32 31 32 37 35 35 35 44 44 50 46 50 50 50 46 42 47 50 49 49 50 50 50 50 50 54 54
46 46 46 47 46 47 46 47 50 51 43 32 29 28 31 27 29 32 31 31 34 32 33 42 44 45 47 51 51 46 49 50 48 42 50 50 48 47 47 47 47 48 49 51
46 47 47 46 46 48 45 43 44 44 49 36 26 33 34 35 29 34 34 33 35 35 43 42 47 44 44 46 43 45 51 53 53 50 49 47 46 46 45 44 42 42 42 45
46 46 46 47 47 43 45 41 40 42 43 38 35 35 38 39 35 33 35 37 36 38 43 40 47 46 49 43 42 47 48 49 49 50 50 50 49 49 47 48 44 44 42 43
47 47 47 48 49 47 40 42 45 43 42 42 36 34 41 38 34 36 37 36 37 45 43 46 46 49 48 42 46 46 47 48 48 46 48 48 50 52 53 52 50 43 43 45
49 49 48 45 42 36 48 48 48 45 43 38 39 37 37 36 42 41 33 31 30 37 36 47 48 44 41 45 46 47 47 47 49 48 49 49 48 47 49 51 50 48 46 46
49 46 43 44 40 47 48 49 45 42 42 39 35 36 39 39 37 26 27 28 31 37 45 48 44 41 46 48 48 50 49 49 49 47 48 49 51 50 49 49 49 45 50 47
42 39 39 41 48 43 46 41 41 42 39 37 40 44 41 37 41 37 38 45 37 39 44 43 40 40 45 48 48 51 51 53 50 49 48 50 49 51 51 47 47 47 46 47
44 44 44 44 42 43 38 39 41 40 39 43 43 43 39 37 40 44 44 39 43 37 47 40 38 44 48 48 48 49 52 50 49 49 49 49 47 44 45 45 45 46 47 47
47 46 42 40 41 37 35 36 38 39 43 45 45 41 37 42 50 43 45 35 38 41 41 38 41 46 49 50 50 50 51 47 46 47 46 45 42 43 45 46 46 46 47 48
41 40 36 36 38 39 40 41 40 44 44 44 41 38 42 43 39 39 35 35 40 38 37 38 45 48 49 50 48 46 44 43 42 42 42 42 42 43 45 46 47 47 50 52
41 40 35 39 41 43 44 42 36 37 36 36 37 37 38 35 37 38 38 37 37 38 40 45 48 50 50 48 46 43 43 43 44 43 42 42 42 43 45 49 48 49 50 51
45 41 37 38 38 33 32 36 36 38 38 36 42 36 37 37 40 39 37 36 35 38 46 50 52 51 49 49 50 48 45 45 45 44 43 43 44 45 47 45 47 49 50 52
35 35 31 33 33 34 36 37 37 40 36 34 34 37 38 41 38 38 39 37 40 46 49 52 52 52 52 51 50 49 47 47 46 46 47 48 46 46 49 49 46 45 47 47

GFSNW_sfc_dewp_006.txt.gz
Dewpoint
51 52 52 52 51 50 45 35 28 27 32 29 30 27 26 27 22 21 18 16 14 12 12 15 15 16 16 15 14 16 19 17 20 16 16 14 13 14 13 14 27 21 23 24
51 51 51 51 50 50 42 33 30 30 26 23 21 23 22 24 23 24 23 19 16 14 11 17 16 16 14 14 15 18 19 20 22 18 17 18 14 12 12 11 17 28 23 23
51 51 50 50 50 50 44 37 26 24 24 23 20 20 19 17 17 19 21 24 23 19 16 14 17 14 14 14 15 51 34 20 27 18 23 20 21 15 15 13 12 19 19 28
50 51 50 50 50 49 44 36 30 27 27 26 29 35 31 28 27 25 29 30 27 24 21 17 13 11 12 14 30 27 23 29 26 20 19 19 19 15 14 17 20 20 19 22
49 50 51 50 49 48 44 40 35 37 31 28 24 25 27 25 28 25 24 29 30 30 31 33 32 28 25 20 19 21 20 30 29 26 21 20 20 19 14 13 16 18 18 20
48 49 49 50 50 47 45 41 42 42 35 27 22 18 18 26 24 27 27 23 27 32 32 35 34 31 28 27 28 29 29 25 33 29 24 23 22 23 20 18 13 15 17 23
48 49 49 49 50 48 50 47 45 37 34 27 26 22 20 22 29 23 28 30 36 34 32 35 34 28 27 27 27 23 33 34 32 30 32 26 24 23 20 20 21 17 20 25
48 48 49 48 50 50 51 50 44 39 34 30 30 25 24 29 36 30 24 23 27 27 30 35 30 26 28 26 26 27 30 36 32 32 31 31 28 28 29 27 28 29 26 31
49 49 49 49 49 49 49 51 49 42 37 29 29 32 30 27 27 29 28 29 27 30 28 36 33 31 30 25 26 28 29 45 34 34 30 31 36 39 40 38 35 44 45 44
48 48 48 48 48 49 48 50 50 44 35 37 34 30 32 36 34 34 34 38 32 32 22 29 33 32 32 28 26 28 30 35 32 33 31 29 42 41 40 37 39 49 48 48
48 49 48 48 48 48 47 47 51 44 39 37 37 35 33 31 35 36 38 37 37 30 22 22 26 29 28 26 30 31 30 27 29 36 37 36 42 45 41 49 49 48 48 48
48 48 47 47 47 47 46 46 51 50 44 37 37 37 36 34 33 30 33 37 38 42 36 40 40 35 38 35 29 29 26 28 28 32 33 45 49 52 51 49 50 52 54 50
48 47 46 46 47 47 46 49 51 48 42 38 35 34 35 37 36 33 30 28 33 37 46 44 43 41 45 40 34 35 32 44 32 36 40 46 48 47 48 50 55 56 58 59
47 47 47 47 47 46 46 46 50 48 44 37 30 35 36 32 32 33 31 30 35 39 39 38 39 41 46 42 46 48 50 49 49 40 52 51 51 50 51 52 53 54 55 55
47 47 47 47 46 48 45 46 51 51 42 35 34 33 31 31 29 29 32 30 31 34 32 42 40 46 45 48 48 45 49 50 50 52 52 52 52 51 49 48 48 49 51 52
47 47 47 46 47 49 41 44 48 51 50 41 28 30 33 34 29 28 32 31 31 31 39 41 43 46 47 44 42 47 52 54 55 51 54 46 46 44 44 45 44 44 45 48
49 49 48 47 48 44 44 41 42 45 44 40 33 33 37 39 27 27 31 32 31 35 42 42 44 47 48 45 42 49 51 53 53 54 53 48 47 47 45 45 45 46 46 46
49 50 50 50 49 47 41 40 45 43 43 40 36 36 42 42 28 30 33 33 35 44 44 44 46 48 47 42 47 49 50 53 53 53 50 49 50 51 50 49 47 46 44 46
50 50 50 46 43 39 49 48 47 44 42 38 38 36 37 45 45 45 33 36 34 45 43 44 47 43 40 45 47 47 48 50 50 50 48 48 49 48 50 51 50 50 51 51
50 46 41 44 49 49 50 48 44 43 43 41 35 38 40 43 39 34 32 31 32 39 44 47 42 41 46 48 49 49 49 49 50 48 48 47 49 50 49 50 51 51 48 51
43 39 38 41 48 46 47 42 41 41 39 39 38 43 44 47 43 42 46 45 42 39 41 42 39 39 45 49 50 51 50 50 50 50 50 50 50 48 47 48 50 52 52 44
44 43 44 44 45 44 39 38 40 40 36 44 43 43 41 44 41 44 47 43 41 39 46 40 37 42 47 48 48 49 50 49 50 51 52 51 50 47 46 45 48 51 52 52
46 47 43 41 43 38 37 36 35 39 43 43 42 43 47 48 50 45 44 39 41 47 40 38 40 46 48 49 47 46 48 47 47 46 47 47 47 44 44 47 50 49 51 50
41 40 39 40 38 39 41 41 42 44 47 47 37 38 45 46 44 45 40 41 42 39 38 38 44 46 49 50 50 49 48 48 44 45 43 44 46 48 49 49 48 50 51 54
42 41 39 39 41 44 44 41 42 47 45 41 37 37 38 41 41 43 41 37 37 38 40 44 48 50 50 50 49 49 47 46 44 43 44 45 46 48 50 51 52 53 53 54
44 40 33 34 32 32 35 36 36 39 42 40 39 37 37 37 40 39 37 37 35 38 45 49 51 51 51 51 53 50 46 46 47 47 47 48 49 50 48 48 49 50 50 54
32 32 32 34 37 40 38 39 39 40 38 37 38 39 39 41 39 36 39 38 41 46 48 50 51 51 50 52 53 53 53 52 49 49 50 48 52 49 51 51 52 49 51 52

GFSNW_sfc_dewp_009.txt.gz
Dewpoint
51 52 51 51 51 50 45 37 31 31 32 27 27 25 27 31 27 28 27 25 24 22 21 18 15 13 14 18 18 18 16 14 14 14 17 15 12 13 9 14 12 18 14 16
51 51 51 51 50 50 43 35 33 33 31 23 24 25 24 25 22 21 22 23 25 25 24 23 21 19 16 14 16 18 20 15 16 18 16 15 13 12 13 7 15 16 22 17
51 51 51 51 50 50 45 39 29 28 30 28 24 27 30 31 31 29 27 26 29 28 27 27 26 24 20 14 12 49 38 18 16 16 19 19 21 15 13 10 8 9 10 11
50 50 50 51 50 49 46 43 33 29 29 31 30 32 33 28 26 28 26 30 31 28 30 29 29 33 33 32 36 27 22 18 18 19 20 18 14 18 14 13 10 11 11 11
49 49 50 50 50 49 46 39 36 36 32 31 27 28 23 21 20 27 26 26 32 30 35 34 33 33 33 32 31 29 28 26 29 27 22 18 16 18 20 12 12 14 14 15
49 49 50 50 50 48 45 43 41 40 34 29 27 27 25 28 26 28 28 30 27 31 29 32 36 33 31 32 32 29 28 30 31 22 26 25 20 17 19 22 16 15 15 15
49 48 49 50 50 49 48 47 45 38 30 29 27 25 25 25 26 28 28 31 31 28 35 34 33 31 31 31 31 28 27 27 31 23 29 26 27 27 25 24 27 21 21 24
49 48 49 49 50 50 49 49 45 39 33 31 29 25 26 27 29 27 28 32 33 35 32 31 30 27 27 26 26 26 27 27 30 26 26 27 29 28 28 25 25 35 44 45
49 48 48 49 50 50 49 49 49 43 35 32 31 32 31 29 29 31 30 35 39 38 30 36 30 30 31 28 32 25 25 34 34 27 25 24 29 36 40 38 37 49 49 49
49 48 49 48 49 49 50 48 49 44 35 36 34 32 32 34 35 33 31 36 36 41 27 29 32 29 32 29 31 33 31 33 31 34 25 32 43 45 42 36 43 49 48 48
49 48 48 48 48 48 47 44 50 45 39 37 37 35 34 34 34 34 37 37 38 38 36 23 29 28 29 32 33 32 35 37 31 36 34 32 48 45 42 51 52 55 56 56
48 48 48 47 47 47 48 44 50 50 43 39 40 40 39 37 35 34 40 38 37 38 39 39 39 28 40 38 35 38 35 41 39 33 39 50 51 49 54 55 57 58 59 60
48 48 48 47 47 47 47 47 49 48 42 38 36 35 36 37 40 39 33 34 39 42 46 42 42 39 43 39 37 43 40 48 39 44 37 46 50 49 59 59 57 55 58 59
48 48 48 48 48 48 46 44 49 47 43 36 33 34 34 35 35 38 38 35 33 45 46 42 41 39 46 42 43 43 49 48 48 48 50 52 55 57 55 56 55 54 55 56
49 48 48 47 47 49 47 42 46 49 43 36 35 38 36 35 35 32 35 35 32 34 36 41 40 44 44 46 46 43 48 49 47 48 52 52 52 51 52 52 51 51 51 55
50 49 49 49 49 49 42 43 50 51 49 40 35 33 34 37 39 37 35 34 34 31 41 43 44 45 44 42 40 46 49 52 54 52 52 51 48 47 47 47 47 48 49 51
51 51 51 51 50 46 40 42 45 47 44 41 36 31 43 42 41 31 33 34 32 36 43 42 43 44 45 44 39 46 50 53 53 53 52 51 50 49 48 46 46 47 49 50
51 51 51 51 51 49 45 44 45 45 42 42 35 34 39 46 40 31 35 33 38 44 44 44 42 45 45 42 46 50 51 53 54 53 54 54 54 52 50 50 49 49 49 47
51 51 51 48 45 42 48 47 47 45 43 38 38 35 35 46 45 45 46 43 39 46 41 41 43 42 40 44 46 48 51 51 52 54 52 50 50 52 53 51 50 50 50 51
51 49 44 45 49 51 51 48 44 43 43 41 36 37 38 45 42 43 43 42 40 37 40 47 41 40 46 48 50 51 51 52 52 50 49 50 49 49 50 51 50 49 50 52
47 42 40 44 50 49 46 41 39 40 38 40 39 43 42 48 42 41 45 43 43 37 41 41 39 38 44 49 49 51 52 52 52 51 50 50 50 49 50 50 52 54 52 50
45 44 46 45 47 45 39 37 39 37 36 41 43 45 46 47 47 45 45 42 41 38 46 40 36 42 47 48 48 50 51 51 52 53 52 52 49 45 46 49 50 51 54 54
49 47 45 42 43 37 37 33 34 36 43 46 45 45 45 47 47 45 43 37 40 46 40 37 40 45 48 49 50 49 51 52 51 50 51 49 49 49 48 50 51 51 51 54
45 42 36 41 39 39 40 41 41 44 47 46 47 45 44 46 44 43 41 42 43 39 36 36 42 45 47 49 51 51 50 50 49 50 50 51 50 51 52 52 52 52 52 53
45 42 36 39 38 40 39 38 46 47 51 46 44 46 45 44 43 43 41 37 36 37 39 43 47 49 50 50 50 49 50 50 50 47 48 50 50 50 49 50 52 52 52 50
45 41 36 37 40 39 39 38 37 40 40 43 42 42 40 40 40 38 36 36 34 38 44 48 49 49 50 51 51 51 51 49 48 50 50 49 48 51 51 51 51 49 52 52
37 38 38 44 44 42 42 39 38 42 39 38 41 39 40 42 36 36 40 38 42 46 48 49 49 50 50 51 51 51 52 50 48 49 50 49 46 45 46 45 47 45 49 49

GFSNW_sfc_dewp_012.txt.gz
Dewpoint
51 51 51 51 51 49 45 39 32 34 34 26 28 29 28 31 27 27 26 27 26 25 24 24 24 23 20 24 24 20 12 9 12 14 15 17 16 13 9 8 9 11 8 10
51 51 50 50 50 50 42 37 35 36 31 25 28 32 31 30 30 29 29 25 28 29 28 26 27 28 29 34 32 34 29 17 14 12 13 16 15 13 10 11 10 8 13 12
51 51 50 50 50 49 43 37 31 29 31 32 29 29 31 29 31 26 27 26 31 30 27 31 31 32 34 33 33 43 33 23 14 13 13 15 15 15 13 9 8 9 11 16
50 50 50 50 50 49 42 36 32 33 29 30 30 30 28 30 28 26 27 27 27 31 28 31 31 32 34 32 37 31 31 25 22 24 19 15 15 16 15 11 9 8 9 10
50 50 50 50 50 49 41 38 37 36 33 32 29 28 25 31 31 30 26 27 29 29 31 31 31 31 33 30 31 30 31 26 27 27 24 16 15 18 17 17 13 11 11 10
50 50 50 50 50 47 39 41 42 39 34 30 27 28 26 27 28 33 30 28 29 28 30 32 31 34 35 34 32 30 30 27 25 25 25 18 18 17 17 16 17 15 12 13
49 49 50 50 50 48 43 42 44 38 31 29 27 28 29 27 30 29 28 28 30 32 36 34 32 31 31 32 32 31 29 28 26 26 27 20 22 21 20 19 22 21 15 18
49 49 48 49 50 50 46 45 44 39 33 32 30 30 29 31 31 28 29 30 33 37 33 29 29 29 28 29 31 29 28 29 26 27 27 24 27 29 24 20 23 38 27 32
49 49 49 49 50 50 45 44 45 43 35 31 34 33 32 30 28 31 31 32 37 37 36 33 25 26 32 29 28 31 34 27 26 27 26 24 24 36 38 35 43 48 49 46
49 49 49 48 48 49 46 44 46 43 36 36 36 32 32 33 32 32 33 36 35 38 35 31 29 29 31 30 28 31 37 38 28 29 31 29 44 46 41 32 35 48 49 48
49 49 48 48 48 48 45 43 45 43 38 36 37 35 34 34 34 33 33 35 36 33 34 32 30 29 29 30 31 37 38 39 39 34 37 36 38 44 36 44 57 58 59 58
49 48 48 48 48 48 47 41 44 46 42 39 40 40 39 38 37 35 35 36 35 38 35 36 36 29 35 33 32 42 39 41 39 36 42 42 42 51 57 57 56 58 59 59
49 49 48 48 49 48 48 43 43 42 42 37 37 37 38 39 39 38 35 34 38 39 41 39 37 36 39 35 37 41 44 47 40 42 44 49 56 58 56 56 57 57 57 57
49 49 48 48 49 48 47 43 44 44 43 35 34 36 35 35 35 37 37 36 38 43 42 39 35 36 42 39 42 41 45 47 46 44 47 50 52 56 56 54 54 55 56 57
49 49 50 50 49 50 48 45 44 46 42 36 36 37 38 37 38 37 36 37 36 35 37 38 38 42 40 44 43 42 47 47 47 47 50 51 50 55 56 53 52 52 53 54
50 50 50 50 50 51 44 39 44 48 47 39 33 35 34 37 41 37 35 35 34 34 32 38 42 44 42 38 38 46 47 49 51 51 51 51 52 50 51 49 49 51 51 51
50 50 50 51 51 49 41 37 42 46 44 40 35 33 37 44 43 37 33 34 32 33 40 40 42 43 40 40 39 46 49 51 54 53 53 50 51 51 52 51 51 50 51 54
51 51 51 51 51 50 46 47 47 46 42 42 36 34 37 45 41 37 44 31 38 43 42 43 41 42 42 40 44 45 48 51 53 53 53 52 53 53 51 51 50 50 51 52
51 51 51 49 46 44 46 48 48 47 43 38 37 35 34 45 44 44 44 45 39 44 40 41 42 42 38 43 45 47 50 52 52 51 51 52 52 53 52 51 49 49 51 53
51 48 44 42 47 50 50 48 44 42 42 41 36 40 37 41 42 40 41 44 39 35 39 44 39 39 44 47 49 50 51 52 52 49 49 49 49 50 51 51 53 51 50 52
44 41 40 44 50 48 46 40 38 39 37 40 40 40 38 46 41 40 45 40 40 34 39 40 38 37 44 49 50 52 52 52 51 51 51 52 51 50 51 52 52 52 52 52
44 44 46 45 44 42 39 33 36 35 35 41 40 44 46 46 47 41 44 40 41 37 45 38 35 41 47 49 50 51 52 52 52 53 53 52 49 48 49 49 51 51 52 53
47 44 44 40 40 37 34 32 35 37 41 44 46 43 45 46 47 44 41 38 39 46 38 34 38 45 47 48 50 51 52 52 51 51 51 50 50 51 49 52 51 53 52 52
43 39 34 37 35 39 40 42 42 43 45 45 46 46 44 46 44 43 40 43 41 37 34 34 42 44 46 48 50 50 51 52 51 52 51 51 51 51 52 52 51 49 49 51
42 40 36 40 42 43 43 42 43 44 45 46 45 45 43 42 40 41 40 37 34 35 37 42 47 49 49 50 51 51 51 51 52 51 51 52 50 50 50 50 51 50 49 48
42 42 42 42 42 42 42 42 42 44 39 42 42 41 39 39 39 38 36 35 35 39 45 47 48 49 49 50 51 49 50 49 47 49 48 45 44 43 44 44 46 47 45 44
40 40 44 44 44 43 43 41 41 42 40 38 41 40 39 41 37 36 40 39 43 46 47 49 50 49 48 50 48 48 49 49 45 42 37 37 37 38 41 40 42 43 44 41

GFSNW_sfc_dewp_015.txt.gz
Dewpoint
51 51 51 51 50 49 44 36 30 33 36 26 28 29 31 33 28 29 28 27 26 26 27 27 24 24 26 33 33 33 32 15 12 12 16 13 13 12 12 11 10 10 9 11
51 51 51 50 50 49 41 35 33 38 33 27 25 27 28 30 29 29 27 27 28 30 28 25 31 31 34 33 33 35 35 26 12 10 18 16 13 15 13 12 11 12 10 11
51 51 50 50 50 49 41 36 31 32 32 31 29 29 26 29 32 29 27 27 30 30 27 31 29 30 34 32 32 41 33 27 22 16 14 18 15 15 15 12 12 12 11 11
51 51 51 50 49 49 41 34 30 32 29 30 31 29 27 30 30 34 30 26 28 30 28 31 30 31 33 33 36 32 31 27 26 27 26 25 22 16 14 13 13 12 12 10
50 50 51 51 50 48 42 36 34 35 33 31 30 29 28 28 29 32 32 28 27 29 29 30 29 31 33 32 31 30 31 28 27 25 25 25 23 18 17 14 14 13 12 12
51 50 50 50 49 46 38 41 39 39 36 32 29 27 28 28 29 32 34 28 26 26 28 33 33 33 32 31 31 29 29 28 27 24 25 25 21 19 18 15 16 14 12 13
49 49 50 50 50 47 43 42 42 38 32 31 30 29 29 28 30 30 30 28 29 30 36 33 31 33 33 33 33 32 29 29 28 25 27 22 21 25 19 18 19 19 16 18
49 49 49 49 50 49 44 44 43 39 32 31 30 30 29 31 32 30 29 28 31 34 34 29 28 26 29 29 29 31 32 29 27 24 26 27 25 30 28 18 19 28 20 21
49 49 49 49 50 50 44 42 42 41 36 33 34 33 32 31 30 31 32 33 34 36 34 31 25 23 29 27 29 29 30 30 27 26 25 24 29 40 45 42 19 47 39 28
49 49 49 49 49 49 44 42 43 43 37 36 35 31 31 33 31 30 31 33 34 36 33 27 26 27 31 25 29 27 29 35 31 27 26 30 41 52 48 32 24 47 47 46
49 49 49 49 48 48 44 42 44 41 38 35 36 35 34 34 34 31 31 32 34 31 31 31 29 29 30 28 30 32 33 34 36 30 32 32 51 51 49 52 56 56 55 57
49 49 49 49 49 49 48 44 44 46 42 37 38 38 38 36 35 34 35 33 33 35 32 33 33 31 33 30 29 36 33 38 39 35 38 44 49 51 57 56 56 58 57 59
49 49 49 49 49 49 48 45 44 43 41 37 38 37 38 40 40 38 35 34 35 37 40 38 36 33 37 30 33 34 38 45 41 41 42 49 52 53 55 56 55 56 57 57
51 49 49 49 49 50 49 45 43 44 41 36 35 38 36 36 38 39 38 36 38 43 43 38 36 34 40 36 37 36 38 43 40 44 46 50 53 53 55 55 53 54 56 57
51 51 50 50 50 51 50 46 45 45 40 36 36 36 37 37 37 36 38 37 36 35 38 38 36 39 39 41 38 38 44 44 42 40 49 49 51 54 53 52 53 51 55 55
51 52 51 51 51 51 45 40 44 46 46 40 33 34 35 36 37 38 36 36 36 36 35 34 37 41 40 37 33 45 47 49 50 50 51 52 53 53 53 52 52 56 54 53
51 51 51 51 51 49 43 39 44 48 47 40 35 33 36 40 41 39 38 38 36 35 36 36 37 40 41 38 36 44 46 48 51 52 52 51 52 52 53 54 53 53 52 53
51 51 52 51 51 50 47 49 49 48 44 42 35 34 36 44 40 38 44 33 36 42 41 42 41 42 41 35 40 45 46 49 50 53 52 51 52 53 53 53 54 52 52 51
51 51 51 49 46 44 45 49 49 48 43 36 36 34 34 45 42 43 43 44 38 43 40 40 41 37 35 40 43 44 47 49 52 52 52 51 51 51 51 50 51 52 52 52
51 46 43 40 45 50 51 47 43 42 42 41 35 38 35 41 42 41 41 42 39 34 37 43 37 35 41 44 47 49 52 52 51 49 49 49 49 50 50 51 51 52 52 53
43 41 40 43 47 48 46 39 38 38 35 38 38 38 36 44 40 40 43 36 38 33 37 38 34 34 43 49 49 51 52 52 51 52 51 51 51 49 49 50 51 52 53 52
44 46 47 44 43 42 38 36 37 35 34 40 40 42 42 45 47 42 42 38 38 35 43 37 33 38 46 48 50 51 52 52 52 52 52 51 51 49 49 49 50 51 52 53
46 43 42 38 39 38 35 32 37 40 42 43 44 44 45 46 46 43 41 39 39 44 36 33 35 42 47 48 50 51 52 53 53 54 53 52 52 51 51 53 53 52 51 52
43 38 36 38 38 40 41 42 43 44 44 45 46 45 43 45 42 43 39 41 40 36 33 34 42 47 49 51 51 50 50 50 50 52 52 52 51 51 51 50 48 47 47 50
41 41 35 40 43 43 42 40 43 44 44 45 44 44 42 40 40 41 39 37 34 36 38 43 47 49 49 48 49 48 46 46 47 46 47 50 49 45 44 43 43 44 45 45
43 42 41 42 40 39 39 38 40 42 41 42 42 40 38 39 39 38 36 34 34 39 45 47 49 48 48 48 46 43 39 34 33 35 35 37 39 41 42 40 40 41 42 41
42 43 45 42 42 41 40 37 36 38 42 40 42 39 39 41 38 37 41 40 43 46 47 49 49 48 48 47 43 42 41 37 31 31 32 32 33 34 35 37 39 41 42 40

GFSNW_sfc_dewp_021.txt.gz
Dewpoint
52 52 52 51 50 49 45 38 27 34 35 25 27 23 26 30 28 34 30 27 28 27 27 25 27 29 31 29 34 33 33 22 22 21 22 22 21 21 21 16 24 17 14 10
52 52 51 51 50 49 45 36 34 36 32 25 27 28 27 25 29 32 34 29 29 30 29 25 29 30 33 30 34 34 31 27 24 22 19 20 22 22 21 19 21 25 14 13
51 52 51 51 50 49 43 37 28 31 32 32 27 26 25 26 29 32 37 35 29 29 29 30 28 29 30 30 34 40 33 28 28 21 24 26 25 20 22 19 19 20 20 18
51 51 51 51 50 48 44 40 32 33 28 27 29 30 28 27 26 28 32 36 36 30 27 27 28 30 29 29 35 31 31 26 28 26 26 25 24 23 22 22 23 22 21 21
51 51 51 51 50 46 44 38 35 37 33 32 31 28 26 27 26 28 25 34 32 33 32 27 28 30 30 29 30 29 30 25 30 25 23 22 23 24 24 23 23 22 21 21
49 50 51 50 49 46 43 43 42 39 36 31 33 27 26 26 29 29 30 34 31 27 28 29 29 29 29 29 28 29 29 28 27 21 24 24 22 23 23 23 24 23 22 25
50 49 51 50 50 48 47 46 44 38 29 33 28 27 27 27 28 31 30 29 29 29 31 29 26 29 28 28 27 29 29 30 26 19 24 19 21 26 30 29 26 24 25 26
50 50 50 50 50 49 48 47 44 39 32 28 27 27 27 28 28 29 29 30 31 32 33 26 23 24 28 26 25 27 31 29 20 15 18 21 22 24 38 40 30 40 44 33
49 49 49 49 51 50 49 47 47 43 36 29 30 30 30 28 27 28 29 31 34 34 36 30 24 15 19 17 26 28 28 32 25 21 13 15 24 29 43 47 33 51 54 54
49 50 49 50 51 51 50 47 47 43 37 37 34 31 31 31 31 31 28 29 29 37 31 23 25 22 24 15 15 28 29 28 25 23 21 20 25 38 51 40 35 53 54 56
50 50 50 50 50 52 50 46 47 45 39 38 37 36 33 33 33 31 29 31 34 36 31 29 25 28 28 27 21 20 27 29 29 24 21 19 27 33 34 50 54 55 56 57
51 50 50 51 52 51 52 45 46 47 42 39 39 38 38 37 34 33 37 33 33 36 34 34 33 30 31 30 24 30 25 26 33 25 21 31 36 42 50 55 55 56 56 57
51 50 51 51 52 52 52 47 46 44 41 38 35 34 35 38 39 37 33 34 34 35 39 38 37 32 35 31 29 31 32 37 35 31 29 33 36 40 46 53 55 56 57 58
51 50 51 51 52 52 52 48 47 45 42 35 34 36 36 37 38 39 37 34 35 39 42 37 36 34 38 34 33 34 34 35 33 35 37 39 37 38 45 52 54 57 56 57
51 51 51 52 52 52 52 51 48 48 42 36 35 38 36 36 38 38 38 36 35 36 38 37 35 38 37 37 37 35 35 35 34 30 38 42 43 47 51 51 55 56 56 58
51 51 52 52 51 51 47 42 47 49 47 40 35 37 38 38 38 38 38 37 36 36 35 34 37 36 39 36 34 34 38 39 41 41 42 44 46 48 49 52 56 57 58 60
51 51 52 52 51 50 45 42 46 48 48 39 36 34 37 38 40 39 38 38 37 38 38 37 36 36 40 37 33 36 37 41 41 42 43 42 45 46 51 56 57 57 59 58
51 51 52 51 51 50 47 50 49 48 44 41 35 36 37 43 40 40 39 37 37 38 38 39 38 41 39 34 38 39 42 43 43 44 43 44 48 50 54 57 58 56 54 53
51 50 51 48 47 45 47 50 50 49 43 35 35 33 35 42 41 44 43 40 36 42 36 39 40 38 35 38 40 40 41 42 42 45 47 47 49 51 53 55 55 53 53 53
48 48 41 43 47 49 49 46 42 41 42 39 33 36 34 39 39 40 40 42 38 35 37 40 36 35 40 41 42 43 44 45 46 45 45 48 50 51 54 54 55 55 54 55
46 44 42 46 48 49 46 40 38 38 34 35 36 36 35 42 37 38 42 36 35 33 36 34 33 33 39 46 51 52 52 51 51 50 51 50 50 52 54 54 55 54 55 54
47 47 48 47 45 44 41 40 40 38 36 41 39 41 40 41 44 41 41 35 35 33 41 36 32 36 43 47 47 48 50 50 52 52 52 51 53 55 55 55 55 55 53 52
48 45 43 43 44 36 36 33 36 39 44 45 45 44 47 47 47 44 42 39 37 43 36 32 34 41 43 44 46 46 47 47 47 48 50 51 52 52 52 52 52 50 49 49
44 42 37 40 38 38 38 38 40 43 45 43 45 46 44 45 42 43 38 41 40 36 32 32 38 40 42 44 45 45 45 47 46 47 47 47 47 47 46 45 47 44 43 45
44 43 37 39 41 41 40 43 43 40 37 44 45 43 42 42 41 41 39 37 35 33 33 37 41 41 41 41 42 41 41 43 44 45 45 45 45 45 44 44 43 43 43 45
45 42 39 40 35 34 36 37 36 36 38 44 42 40 39 40 41 38 36 34 34 38 41 43 43 41 40 39 38 38 39 41 41 42 43 42 40 41 41 41 41 42 42 42
41 40 43 43 42 39 36 36 36 39 37 39 40 37 38 43 38 36 40 36 39 41 41 42 42 41 39 37 35 36 37 38 40 40 41 41 40 40 39 38 39 38 39 40

GFSNW_sfc_dewp_024.txt.gz
Dewpoint
52 52 52 51 50 49 44 32 20 31 31 20 21 19 23 27 21 24 26 26 23 26 27 27 26 28 30 29 32 31 29 25 24 20 20 19 19 20 20 15 23 16 15 10
51 52 52 51 50 49 40 32 29 31 29 20 21 23 22 22 23 27 29 30 28 28 27 27 28 30 30 29 32 33 32 25 23 23 21 23 20 20 20 18 19 26 16 14
51 51 51 51 50 49 42 32 23 24 27 28 25 24 22 22 23 25 25 37 34 30 23 27 28 27 27 27 29 39 34 28 27 20 25 24 23 21 21 19 18 19 19 19
51 51 51 51 50 49 42 33 27 31 24 26 28 28 23 22 23 24 24 34 36 35 28 24 24 28 27 26 32 29 30 30 30 28 26 25 22 20 21 22 23 22 20 22
50 51 51 51 50 48 39 32 32 34 32 30 27 27 25 22 24 24 24 26 30 30 34 30 29 29 28 27 29 28 27 30 30 28 26 24 23 24 23 22 22 23 23 23
50 50 51 51 50 47 41 40 39 40 32 29 27 25 25 26 26 26 26 26 25 24 29 32 31 29 28 29 29 28 28 26 29 26 25 24 24 25 24 25 25 25 25 28
50 50 51 51 51 50 49 44 43 39 30 27 27 25 25 26 27 28 28 26 26 27 30 30 27 24 23 24 25 25 29 29 26 23 27 24 25 26 26 25 26 26 27 29
50 50 50 50 50 51 49 49 46 41 33 27 27 27 26 27 28 26 26 27 30 31 31 26 21 18 21 21 21 22 26 28 22 21 22 24 23 24 25 27 27 27 29 31
50 49 50 50 51 51 50 49 50 45 37 30 28 29 29 27 27 26 26 27 30 30 30 26 23 13 15 14 17 18 23 30 24 21 20 20 24 23 35 33 31 33 42 42
50 50 50 50 51 51 51 48 49 45 39 37 35 32 31 32 30 28 27 27 27 30 31 24 18 15 17 14 16 22 18 25 23 20 19 20 23 33 43 33 43 49 48 50
51 51 50 51 51 52 51 48 49 45 40 38 37 35 34 33 33 32 29 30 31 33 32 25 20 20 24 20 18 18 20 19 18 20 20 18 21 24 31 45 50 49 50 53
51 50 51 51 52 52 52 48 48 49 43 39 40 40 39 37 36 34 37 29 31 31 34 38 35 28 28 27 20 23 20 20 20 22 20 29 28 31 36 38 42 49 48 48
51 51 51 51 52 52 52 49 47 45 42 40 39 35 35 37 37 36 35 33 32 31 32 32 35 32 29 29 25 28 28 29 26 26 26 30 32 32 34 38 41 42 47 47
50 51 51 52 52 52 52 51 47 47 43 37 34 36 35 37 36 36 37 34 35 35 37 39 37 35 32 31 29 28 27 30 31 32 33 31 31 34 36 38 43 47 47 51
51 51 52 52 52 52 53 54 49 49 43 38 36 39 37 36 37 36 38 36 34 36 38 37 36 38 36 33 32 31 31 32 29 28 32 33 35 36 43 44 45 47 49 52
51 52 52 51 51 51 47 43 47 50 48 41 36 36 37 37 37 37 38 37 36 35 37 33 34 34 38 38 35 33 33 35 36 35 37 37 39 40 42 44 44 45 49 56
52 52 52 52 51 48 45 44 47 49 49 40 36 36 37 38 40 39 38 40 39 38 39 37 35 33 40 37 33 33 34 36 39 39 40 41 39 40 42 45 47 48 53 59
52 51 51 52 51 50 48 50 49 49 45 42 35 36 39 44 42 41 43 39 40 39 37 38 38 39 39 35 35 38 40 41 41 41 41 41 42 42 44 49 52 55 56 56
51 50 51 49 47 46 48 51 49 50 44 36 35 34 35 43 41 43 41 40 35 40 36 37 40 37 33 37 39 39 41 42 41 43 43 43 45 45 46 49 51 50 56 56
49 49 44 44 46 51 50 46 43 42 42 40 34 37 33 39 39 40 40 41 36 35 37 38 34 33 37 40 45 49 44 42 44 42 43 45 47 47 48 51 51 53 56 56
48 45 44 47 49 49 47 43 39 39 37 38 37 37 36 42 37 38 41 38 36 34 37 35 33 33 38 44 45 48 50 46 45 46 47 49 50 50 51 53 56 56 55 54
48 47 48 48 45 44 41 40 41 41 40 45 42 44 41 42 44 41 42 38 39 36 44 37 32 35 41 43 44 46 48 51 51 50 50 52 52 52 53 52 52 53 53 52
49 47 44 42 43 37 36 33 38 38 42 43 44 44 47 47 47 46 44 38 38 44 38 32 34 39 42 42 43 45 46 47 47 48 49 47 47 47 48 48 50 51 51 53
44 41 38 39 38 39 39 40 40 40 41 39 42 44 44 44 42 42 38 40 36 34 33 33 39 42 43 43 43 45 45 45 46 46 47 46 46 46 47 48 50 50 49 51
41 39 39 38 37 36 37 38 38 38 39 42 40 39 37 39 39 41 39 38 35 35 34 39 43 43 42 42 42 44 44 45 45 45 45 45 45 45 44 45 45 46 48 47
39 39 36 37 34 33 34 36 36 38 39 44 40 39 39 39 41 38 37 36 33 36 40 41 39 40 40 40 41 42 42 42 42 42 43 44 45 43 43 42 44 43 43 42
37 35 36 36 36 35 35 35 35 38 37 36 38 37 38 41 37 37 38 36 38 40 38 34 39 41 41 41 40 40 41 41 42 43 42 40 40 41 41 41 41 40 40 40

GFSNW_sfc_dewp_030.txt.gz
Dewpoint
53 53 53 52 51 50 44 37 28 25 22 17 13 11 14 23 22 19 15 13 14 25 28 30 32 34 38 36 30 28 22 17 22 23 21 20 18 20 22 19 26 18 19 16
53 53 52 52 51 50 43 35 31 26 21 15 14 16 13 11 23 21 15 15 19 21 24 29 34 36 39 35 32 33 33 26 24 25 22 21 20 19 21 20 19 28 18 16
53 53 52 52 51 51 45 37 28 28 27 22 20 18 15 18 22 28 18 15 22 21 23 25 33 34 37 35 33 47 38 32 30 24 27 24 24 19 20 19 20 22 18 23
52 52 52 52 51 51 44 38 30 31 26 25 24 22 23 28 22 25 17 21 25 21 20 25 26 30 30 34 39 33 32 33 31 26 25 23 19 19 19 22 24 23 21 21
52 52 52 52 52 50 40 42 41 38 34 31 25 25 26 23 19 16 16 21 21 18 19 24 26 29 29 35 32 29 31 32 34 31 28 27 25 20 19 18 18 20 20 20
52 52 52 52 51 50 42 45 40 42 35 30 27 26 23 20 23 23 19 26 18 16 18 24 22 21 22 26 28 27 30 32 33 32 32 29 27 25 21 20 19 19 22 28
51 52 52 52 51 51 51 47 44 38 34 30 29 29 29 26 25 23 22 23 25 24 23 21 19 18 20 22 24 24 27 32 33 30 33 29 29 29 27 22 21 21 25 29
51 51 51 51 52 51 52 50 44 39 36 33 32 30 31 32 29 25 25 26 32 24 23 21 22 18 20 19 20 21 25 28 28 29 29 31 29 30 28 27 26 25 26 28
51 51 50 51 52 51 53 50 48 43 37 35 34 36 33 34 32 26 25 33 30 25 20 21 24 20 25 14 15 20 21 28 26 30 28 27 31 29 28 28 27 44 34 29
51 51 51 52 52 52 53 50 50 44 38 39 37 35 37 37 36 35 27 30 27 31 33 25 20 19 23 18 16 19 20 24 23 25 27 29 37 32 30 29 44 49 47 41
50 51 51 52 52 52 53 51 51 45 41 39 40 39 37 38 35 34 32 31 35 37 35 34 34 30 25 22 25 25 21 23 23 25 26 28 32 34 37 46 45 44 46 47
51 51 52 52 52 52 53 49 51 50 44 41 42 42 41 41 39 38 36 33 32 30 33 37 32 26 24 28 21 27 24 26 23 25 26 43 35 35 35 36 39 39 42 40
51 52 52 52 53 52 52 51 50 48 43 42 40 39 42 44 40 37 35 35 34 32 35 29 27 30 26 28 23 30 32 31 26 29 30 32 30 30 31 34 34 38 36 38
51 52 52 52 52 53 52 52 49 48 44 38 38 40 41 41 37 37 36 36 37 36 33 32 35 32 30 27 27 26 26 29 31 30 30 31 30 32 32 32 34 35 36 37
51 52 52 52 52 52 50 54 48 50 45 39 39 41 40 42 42 38 37 35 35 33 35 32 32 32 32 30 29 26 26 27 24 25 34 38 39 36 33 33 33 35 36 39
52 52 52 52 52 51 51 48 51 51 50 42 37 40 43 43 43 40 41 45 45 45 41 39 39 36 38 35 33 32 31 33 37 37 39 40 39 36 35 37 37 34 35 38
53 53 52 52 51 49 44 43 46 50 50 41 37 38 44 45 43 46 45 46 44 42 39 37 38 39 39 36 32 34 34 37 39 38 39 39 40 38 39 39 40 42 41 41
52 52 51 51 50 48 47 47 49 49 45 42 37 36 39 44 41 41 44 40 40 39 37 37 37 38 37 33 36 38 39 40 39 40 39 38 41 41 41 41 41 42 40 40
52 50 51 50 49 46 47 50 49 48 44 40 38 36 38 43 42 43 42 40 37 40 35 35 35 34 32 34 34 43 44 41 41 40 40 40 40 41 41 41 40 40 41 40
50 49 48 47 47 51 49 47 45 44 44 42 41 41 42 41 41 41 41 40 39 36 40 38 33 32 40 44 45 45 46 42 43 41 41 41 42 42 42 41 41 41 41 43
49 48 45 49 51 49 48 47 43 43 46 45 45 43 44 43 41 41 43 41 40 37 39 39 34 34 40 44 45 46 48 46 45 44 43 43 44 44 44 44 46 45 48 49
47 47 48 50 47 43 40 42 40 41 42 40 41 46 47 45 44 43 44 43 43 34 34 37 33 39 43 43 44 46 46 46 46 46 49 49 49 50 50 50 50 51 51 51
52 46 43 42 41 39 38 36 42 39 40 39 39 46 50 50 46 47 44 30 28 34 36 33 37 43 44 44 44 44 47 46 46 46 46 46 47 48 49 49 49 49 48 48
42 38 39 37 35 33 33 34 37 38 38 39 41 43 41 37 38 37 37 33 32 31 34 35 41 44 44 44 42 43 44 46 47 46 46 46 46 46 46 48 48 47 46 47
38 37 37 33 29 28 29 31 32 34 35 39 45 39 37 35 34 35 35 34 34 35 35 37 43 46 45 43 40 40 41 42 45 46 47 47 46 46 45 46 46 47 48 47
36 34 32 31 28 28 29 31 31 34 34 36 36 35 36 33 33 34 36 35 35 35 39 35 39 45 44 43 42 40 39 39 41 42 44 43 45 45 46 45 45 45 45 43
35 34 34 32 31 31 31 31 31 35 33 31 32 32 32 34 31 33 38 36 41 39 40 35 43 45 41 41 38 37 39 40 38 41 41 43 42 40 40 41 41 40 43 43

GFSNW_sfc_dewp_033.txt.gz
Dewpoint
53 53 53 52 51 50 44 39 34 35 28 21 22 15 14 22 13 24 22 23 11 16 18 23 23 31 36 38 35 30 33 30 17 18 23 24 20 17 16 14 16 17 16 17
53 53 53 52 51 50 46 39 37 36 31 21 21 21 18 15 26 26 22 22 20 15 27 29 32 32 33 37 34 30 37 30 21 17 18 20 19 17 17 19 23 20 17 20
52 53 52 52 51 51 47 40 33 34 33 30 27 24 21 22 24 25 23 20 18 23 25 27 31 30 30 34 32 43 38 31 29 22 19 22 19 19 17 19 17 17 20 20
52 52 52 52 51 51 46 37 34 37 32 32 32 30 26 24 24 26 21 21 23 22 23 19 28 27 27 27 35 34 31 28 32 32 28 26 24 19 19 17 20 19 18 26
52 52 52 52 51 51 44 38 39 39 37 36 30 31 29 25 25 23 21 20 21 21 21 25 24 24 24 28 30 28 27 28 32 34 30 27 26 20 20 18 19 22 19 20
52 52 52 52 51 50 41 45 41 41 38 33 30 30 30 29 28 27 24 21 19 22 23 27 23 20 19 22 24 26 26 26 30 31 33 32 30 29 20 20 20 20 22 24
52 52 52 51 51 51 50 48 45 38 34 34 31 30 30 33 32 31 29 25 30 29 32 30 24 20 20 18 20 28 26 24 30 32 33 29 32 34 32 21 24 20 21 34
51 51 50 51 52 52 50 51 44 38 34 36 34 31 33 35 34 34 30 28 35 33 30 25 18 21 23 21 20 26 26 24 27 31 31 32 32 33 32 28 41 46 46 37
50 50 51 52 52 52 52 51 48 42 35 35 37 36 35 34 37 33 34 33 32 32 29 29 22 23 24 26 19 26 23 25 29 29 32 31 32 35 38 36 42 45 47 47
50 51 51 52 52 52 52 51 49 44 37 39 40 39 38 40 38 37 35 35 34 40 34 28 25 25 26 24 27 24 23 25 24 26 29 37 34 36 43 36 42 43 41 45
51 52 52 52 52 52 52 50 50 45 40 40 40 41 41 41 40 37 38 35 36 38 33 34 34 33 29 28 30 30 26 28 26 27 30 34 35 33 39 43 39 40 41 42
51 52 52 52 52 52 52 49 51 50 44 42 45 44 44 44 43 41 40 39 37 35 34 35 32 26 31 26 31 32 31 34 34 31 36 35 41 37 35 36 37 37 39 38
51 52 52 52 53 53 52 51 50 48 43 42 42 41 46 48 47 45 39 38 37 38 39 34 33 31 30 27 30 30 28 33 30 32 32 32 34 35 34 36 35 35 36 39
51 52 52 53 53 53 52 51 49 47 44 38 38 43 44 44 42 42 42 39 38 37 38 34 36 34 35 31 31 30 29 30 29 28 34 36 36 41 41 37 38 37 37 39
52 52 53 53 52 52 51 51 48 50 45 39 40 42 45 43 43 43 43 42 40 37 36 35 33 34 34 34 33 30 31 30 30 30 33 39 38 40 41 40 39 41 42 41
52 53 53 52 52 51 52 47 50 50 50 42 37 42 42 43 43 43 44 46 45 44 41 40 40 40 38 34 32 32 34 36 36 35 37 37 38 38 40 41 41 41 43 43
53 53 52 52 52 50 46 44 48 50 50 42 37 39 43 43 44 46 45 45 42 41 38 36 37 38 39 35 32 36 38 39 39 39 39 38 37 37 41 42 43 43 43 43
52 52 51 50 50 49 47 47 49 49 43 42 39 39 41 43 42 41 44 41 41 39 38 37 36 37 36 32 37 40 43 44 45 43 41 40 39 39 40 42 43 43 42 42
52 51 51 50 49 47 47 50 49 49 45 41 41 39 40 45 43 43 42 41 37 40 36 36 35 33 32 36 39 41 43 44 44 42 43 41 40 40 40 42 42 42 42 42
51 49 49 48 49 51 50 47 45 44 43 42 42 44 42 43 42 41 41 40 39 36 40 37 33 32 41 42 43 43 44 45 46 44 39 39 39 39 41 42 44 44 44 44
48 50 49 49 51 48 47 48 46 46 46 45 45 44 46 45 41 41 43 40 40 35 39 38 34 33 41 43 44 44 44 44 45 46 47 46 48 47 45 45 46 49 49 51
48 49 53 51 49 47 43 44 44 44 43 44 45 48 48 47 45 42 43 41 41 34 38 35 32 39 42 42 44 45 45 44 43 44 45 45 46 48 50 48 49 49 49 48
53 52 49 46 46 39 39 34 40 41 42 41 45 47 50 50 46 46 45 36 32 38 36 33 37 42 43 42 42 44 46 45 43 43 44 44 45 45 47 47 48 47 46 46
50 45 37 41 40 38 36 34 36 37 37 37 45 48 44 46 44 40 38 36 35 32 31 33 40 42 42 42 40 39 42 46 45 44 44 43 43 45 45 45 47 46 45 46
45 42 38 38 34 32 33 36 36 37 37 39 43 42 40 38 38 37 35 32 33 35 35 39 42 43 42 41 41 39 37 38 46 45 44 44 44 44 44 45 45 45 44 45
44 41 35 35 32 31 32 34 34 37 38 39 41 38 36 33 35 33 33 32 32 36 41 42 43 44 43 42 41 41 40 38 37 45 45 44 44 43 44 44 44 44 44 44
42 40 38 37 37 35 35 36 35 40 37 35 37 33 33 38 32 32 37 36 39 41 40 44 45 44 44 42 41 41 41 40 40 40 43 42 42 41 38 38 42 43 43 42

GFSNW_sfc_dewp_036.txt.gz
Dewpoint
53 53 53 52 51 50 46 40 35 37 34 21 21 19 19 27 26 27 23 23 21 17 27 23 23 23 32 32 34 35 34 35 32 23 20 24 28 21 17 14 13 17 18 15
53 53 52 52 51 51 45 39 38 38 32 26 27 26 27 23 26 27 26 22 20 21 28 26 28 30 31 32 34 37 39 35 30 23 18 19 18 27 17 16 16 15 13 14
52 52 52 52 51 51 44 38 33 35 35 33 31 31 30 27 26 25 24 22 21 22 23 28 28 29 30 30 29 39 41 31 31 27 24 27 19 20 21 15 15 14 15 17
51 52 52 52 51 51 44 37 33 37 32 33 34 33 31 29 28 27 24 23 24 21 20 20 27 24 24 27 36 37 36 27 26 27 28 30 30 24 23 17 16 15 16 18
52 52 52 52 51 50 42 36 34 37 36 36 34 32 30 31 33 32 26 29 25 19 21 24 25 24 25 28 31 33 32 25 25 25 33 33 27 27 27 17 18 19 19 18
52 52 52 52 51 50 42 41 40 40 38 35 34 31 31 31 32 36 34 33 29 25 25 27 28 29 28 27 30 31 28 25 25 27 32 31 30 31 28 19 19 19 21 21
50 50 51 52 52 51 48 46 44 38 34 36 36 37 35 34 35 34 33 34 32 32 30 31 29 26 24 21 24 28 27 26 25 27 31 28 32 33 36 41 41 41 45 43
50 50 51 52 52 52 49 48 45 39 34 37 37 37 38 37 36 35 36 34 37 37 32 26 23 24 24 24 25 25 28 25 24 27 30 31 34 35 33 36 39 39 41 49
51 51 52 52 53 52 51 50 48 41 36 35 38 38 38 36 37 36 34 37 37 38 32 28 22 27 32 33 31 23 33 26 24 25 30 31 35 36 40 41 37 39 44 51
51 52 52 52 52 52 51 49 48 43 37 39 40 37 37 39 38 37 38 38 35 38 35 32 32 31 36 32 34 30 32 27 24 28 34 35 37 37 37 36 38 39 42 45
51 52 52 52 52 53 52 50 50 45 40 40 43 42 41 41 40 36 39 37 35 34 32 32 33 33 33 33 36 35 35 34 31 34 34 35 42 39 34 35 36 36 41 45
51 52 52 52 53 53 52 48 51 50 44 43 46 45 46 45 44 41 40 36 34 37 32 34 34 33 34 30 31 36 33 36 35 36 38 42 47 45 40 39 37 40 38 42
52 52 52 53 53 53 52 50 50 48 43 42 42 42 46 48 47 48 41 41 37 35 37 34 34 32 33 30 30 30 33 32 36 32 38 35 44 45 42 39 40 40 40 36
52 52 53 53 53 52 52 50 49 47 43 38 39 44 44 45 44 46 46 41 39 36 35 32 33 31 34 31 31 30 31 32 32 30 33 35 39 38 40 38 39 41 42 42
52 53 53 52 52 52 51 50 48 48 44 39 40 41 43 44 43 44 44 42 41 39 36 36 34 35 35 34 33 30 34 35 34 31 35 36 35 37 38 38 38 42 43 42
53 53 52 53 52 52 51 46 49 49 45 40 36 41 41 43 44 44 43 43 41 43 40 38 39 39 36 32 28 32 37 39 39 38 39 38 39 40 39 38 39 43 43 42
53 53 52 52 51 48 45 43 47 49 47 39 36 38 41 42 41 42 41 42 41 40 38 36 36 37 38 35 32 38 40 42 43 44 43 41 41 40 39 40 41 44 44 43
52 52 51 50 50 49 46 46 49 48 42 41 37 38 39 44 41 40 43 39 39 39 38 38 36 37 35 32 38 40 41 42 43 45 45 43 42 42 40 40 41 43 46 45
52 52 52 50 47 46 45 50 48 47 43 40 40 37 38 43 39 39 40 39 37 40 37 36 35 33 32 38 39 41 42 41 43 44 44 41 41 42 40 40 39 41 42 43
51 49 48 47 48 51 50 46 44 44 43 40 40 44 39 41 42 41 40 41 38 35 38 38 34 33 41 43 44 44 43 43 43 42 41 43 41 39 39 40 41 42 44 48
47 47 47 48 52 47 47 43 41 41 37 40 41 41 41 44 41 41 42 39 39 34 33 34 33 33 39 42 44 46 44 43 43 43 44 44 46 48 43 45 49 48 48 48
47 45 50 48 46 45 40 38 39 38 37 43 44 44 44 44 43 41 42 39 38 29 37 34 32 38 41 42 42 45 46 44 42 42 42 43 44 46 46 46 46 45 46 46
50 49 45 42 40 32 35 31 33 37 37 39 42 42 45 44 42 41 42 36 31 37 32 32 35 39 40 40 41 42 46 45 44 43 42 42 43 43 43 44 45 45 44 45
49 46 30 35 33 33 32 32 33 36 36 36 39 43 43 45 42 37 35 34 34 31 30 33 38 36 39 39 39 38 41 45 44 43 43 42 42 42 43 43 44 44 43 44
48 38 30 31 34 33 33 35 34 35 36 37 39 37 36 35 34 35 31 30 29 29 31 35 39 38 39 37 36 37 37 43 43 44 43 43 42 42 42 43 43 43 43 43
45 37 32 33 32 32 33 34 34 36 38 37 37 35 33 32 34 32 32 30 29 37 39 39 41 38 37 38 34 35 37 36 44 44 43 43 43 43 43 44 43 42 41 41
40 37 36 35 34 34 35 35 34 38 35 33 33 29 30 34 30 30 35 31 33 36 36 40 39 39 39 37 33 33 34 36 35 43 44 43 43 43 43 41 42 43 42 43

GFSNW_sfc_dewp_042.txt.gz
Dewpoint
52 53 53 52 51 50 45 35 13 27 34 28 27 24 27 30 24 26 24 22 21 20 23 23 23 25 27 36 36 33 35 36 31 30 33 35 34 29 32 30 27 23 24 25
52 52 52 52 51 51 46 37 37 39 34 28 28 31 32 31 26 25 25 23 22 20 22 22 26 28 32 37 36 34 36 33 28 28 27 27 29 28 28 25 31 28 29 29
52 52 52 51 51 51 42 38 30 33 34 33 29 32 31 30 31 31 32 25 23 21 22 27 22 26 33 36 34 37 39 35 31 25 25 28 27 27 26 26 25 30 29 30
50 51 51 51 51 50 42 35 30 36 29 30 35 35 32 31 31 34 34 29 31 31 23 20 24 25 26 34 36 36 35 32 32 30 32 31 29 27 26 26 25 27 26 26
50 50 52 52 51 49 39 35 34 34 35 35 34 35 34 33 34 36 34 35 33 34 34 29 24 23 24 26 34 35 37 31 34 29 28 27 26 26 26 26 28 22 21 21
50 51 51 52 51 49 43 40 41 40 36 35 34 35 36 35 38 37 38 38 37 36 34 32 28 25 27 30 33 34 35 33 30 23 26 26 25 28 35 39 40 38 23 36
51 52 52 52 52 51 48 46 45 39 34 35 36 37 38 37 38 37 38 39 37 38 38 37 36 33 31 29 30 34 33 33 32 25 25 27 36 39 39 37 36 40 42 44
51 51 51 52 52 52 49 49 46 41 34 37 37 38 37 38 38 38 38 38 39 39 36 33 24 25 27 27 29 30 34 34 29 24 24 34 35 38 39 38 36 37 39 43
51 51 52 52 53 52 51 49 49 43 38 36 39 38 39 36 36 37 36 36 39 38 36 33 27 23 30 28 29 32 35 36 32 30 28 34 37 39 42 40 35 38 40 40
51 52 52 52 52 52 51 49 49 43 38 40 40 38 38 39 38 34 37 36 36 37 34 30 29 28 32 29 30 31 32 33 28 31 31 38 40 42 39 34 35 39 41 40
52 52 52 52 53 53 50 47 49 46 41 41 42 42 42 41 40 34 37 34 36 36 33 32 31 31 33 33 33 33 33 32 34 35 36 35 43 39 36 38 38 37 39 42
52 52 52 53 53 53 50 47 51 50 44 43 45 45 46 45 45 43 40 37 38 39 35 35 34 33 34 33 29 37 32 35 33 34 36 40 45 42 41 40 39 40 39 42
52 52 53 53 53 53 50 50 50 48 43 39 38 39 44 49 47 49 41 39 40 40 40 37 36 33 35 31 32 35 37 39 36 36 37 39 42 41 39 41 41 41 41 41
52 52 53 52 52 53 52 49 49 46 40 34 36 41 40 44 45 47 47 44 43 38 37 34 36 34 37 34 35 35 37 38 35 36 35 39 40 40 41 41 42 43 43 42
52 53 52 52 52 53 50 47 45 44 41 34 36 38 39 42 42 41 42 42 40 38 37 34 35 37 36 35 36 35 40 37 35 35 38 39 40 42 42 42 42 43 44 43
52 52 52 52 52 52 50 46 45 47 46 37 33 38 38 40 42 41 40 42 41 40 37 36 37 37 38 34 33 39 41 42 43 40 43 43 44 45 45 43 44 44 44 45
52 52 51 51 51 49 45 41 43 48 44 39 40 37 38 40 38 39 39 38 37 39 38 36 36 37 37 34 32 40 41 41 42 42 42 40 41 42 45 44 43 44 44 45
52 52 51 51 50 48 45 46 49 45 40 39 40 41 40 41 37 35 37 35 36 38 37 39 37 38 36 33 39 40 41 42 41 41 42 42 43 44 44 43 43 42 43 47
52 51 51 48 46 44 44 49 48 45 41 33 38 36 39 42 40 36 36 36 36 38 38 36 37 34 32 36 39 41 42 41 41 41 41 42 43 43 42 42 43 41 41 43
51 47 46 44 47 50 49 46 44 44 43 37 38 42 39 40 42 41 39 40 36 33 36 39 32 31 36 39 40 43 43 43 42 40 39 41 41 42 43 43 45 43 42 45
45 44 44 47 50 46 47 43 41 40 35 39 39 41 40 43 41 40 41 36 37 31 34 34 30 28 33 37 39 41 44 43 42 42 42 42 42 42 42 42 43 43 44 45
47 45 46 45 46 43 37 33 34 34 34 38 39 41 43 42 45 41 40 37 33 27 35 28 29 36 35 36 38 39 42 43 41 41 40 41 41 42 41 41 41 41 42 43
47 46 43 40 37 27 29 24 29 30 32 36 40 43 43 45 43 41 40 31 31 34 30 29 33 37 38 37 37 38 42 42 42 41 41 41 40 41 41 40 41 41 41 41
45 44 32 31 28 30 31 31 32 34 35 35 36 41 41 41 38 36 31 33 32 28 19 22 33 35 37 38 37 34 36 41 41 42 42 41 41 40 40 41 41 40 40 40
44 39 28 30 31 32 34 34 34 34 35 36 37 35 34 34 32 32 29 28 27 30 25 31 36 37 38 38 36 34 33 40 40 41 41 41 42 41 40 40 41 41 41 41
47 43 33 34 32 30 31 33 33 34 35 36 34 33 31 31 31 29 30 27 23 29 34 36 37 38 38 37 37 33 31 34 40 41 40 40 40 40 40 42 42 41 41 40
39 37 37 34 33 33 32 34 34 35 32 30 30 26 29 32 29 29 32 29 32 34 34 35 36 37 37 38 38 32 33 34 36 41 41 41 42 42 41 40 37 42 42 41

GFSNW_sfc_dewp_045.txt.gz
Dewpoint
52 53 52 51 50 50 46 39 13 35 36 30 30 27 30 32 24 26 23 22 19 18 19 20 20 18 18 31 33 29 33 33 25 15 16 24 26 32 28 28 31 29 27 21
52 52 52 51 50 50 44 37 37 38 35 29 30 32 31 31 28 28 26 23 23 22 20 19 22 24 28 34 31 32 35 31 17 2 10 23 25 27 31 28 29 33 27 26
51 51 52 51 50 49 45 39 29 33 34 35 33 30 31 30 30 31 33 29 25 22 20 26 21 24 33 34 31 38 36 32 22 11 12 26 28 28 29 28 27 31 31 29
51 51 52 51 51 49 44 38 35 36 32 32 33 33 31 31 30 34 34 33 31 31 27 23 23 24 25 34 35 37 35 28 26 26 25 24 25 26 27 28 28 30 33 34
51 51 52 52 51 47 40 39 39 37 35 36 34 34 33 32 33 35 34 33 33 37 35 29 26 26 26 25 31 34 36 27 28 24 20 24 27 27 28 28 28 28 29 32
51 52 52 52 52 49 44 41 41 41 37 35 34 34 36 36 38 38 36 38 34 35 37 38 36 33 33 29 29 31 34 32 27 19 19 25 25 26 27 28 30 29 27 32
51 51 51 52 52 51 49 47 45 40 34 35 36 37 37 38 38 37 37 39 37 37 38 38 36 35 34 32 31 31 32 33 31 22 23 25 27 36 28 37 39 40 40 45
51 52 52 52 53 52 50 49 46 42 36 37 37 37 37 37 39 35 35 36 38 39 38 36 31 29 33 30 32 30 32 35 29 26 28 32 38 38 35 38 38 41 42 46
52 52 52 52 53 52 52 50 50 44 39 38 40 38 37 36 36 35 33 35 38 38 38 35 28 26 29 24 27 31 34 36 32 29 27 29 39 40 42 41 38 39 42 44
52 52 52 52 52 52 52 51 50 45 40 40 40 39 39 39 38 35 36 36 36 38 36 32 30 30 32 30 28 29 32 33 28 28 27 31 40 41 40 38 38 39 41 44
52 52 52 52 53 53 52 50 51 47 42 41 42 42 42 40 40 35 38 35 38 37 34 34 33 32 34 33 33 33 31 30 29 30 28 27 41 41 37 39 40 41 43 43
52 52 53 53 53 53 51 49 52 51 45 43 45 44 45 46 45 43 41 38 38 39 35 36 35 33 35 35 30 37 33 33 33 33 33 38 42 41 42 42 41 42 41 42
52 52 53 53 53 53 51 51 51 49 45 43 42 40 43 48 47 49 41 42 41 41 42 38 37 33 36 32 33 35 37 39 35 35 38 40 41 42 42 42 41 43 44 42
52 53 53 52 52 53 52 51 51 48 45 41 37 42 42 44 43 46 46 44 45 43 38 37 37 35 36 35 35 35 37 38 36 37 39 40 41 42 44 44 43 43 44 44
52 53 52 52 52 53 51 51 49 49 45 41 39 39 41 43 42 41 41 42 42 39 35 34 35 37 36 37 38 35 39 37 35 35 40 41 41 44 46 44 43 43 44 44
51 52 52 53 53 52 50 48 49 48 49 43 39 39 40 42 43 41 41 42 42 42 39 38 38 37 38 35 34 39 41 42 42 40 42 43 42 43 44 44 45 43 43 44
52 52 51 51 52 51 46 43 46 48 47 43 42 43 44 44 45 44 44 43 42 41 40 39 39 39 38 36 33 39 41 41 42 43 42 40 43 44 45 44 43 45 44 45
51 52 51 51 50 48 46 49 49 46 42 43 43 44 44 44 42 42 43 42 42 41 41 41 38 40 40 35 39 41 40 40 40 42 42 43 43 44 45 46 44 43 43 44
52 52 50 50 48 48 47 50 49 47 45 43 42 41 42 44 42 41 43 43 39 42 41 40 40 37 33 38 40 40 41 40 39 38 40 41 41 42 42 43 44 44 44 45
51 49 48 48 48 50 50 47 45 45 43 43 40 44 43 44 42 41 40 40 36 35 38 41 35 37 38 40 41 43 42 41 40 38 38 40 40 40 41 42 43 43 44 45
47 48 48 49 50 49 47 43 42 42 42 42 42 42 43 46 43 40 41 37 39 33 35 37 34 36 39 39 40 44 43 41 40 39 40 41 41 41 41 40 41 41 42 43
48 48 49 49 47 44 40 37 36 38 37 40 44 46 45 46 47 44 41 37 38 31 36 35 34 40 40 41 39 41 42 40 40 40 39 39 39 39 39 40 41 41 41 42
50 49 47 42 41 37 32 36 38 32 34 37 42 41 47 46 44 43 41 34 33 35 33 34 38 41 41 42 41 38 44 41 41 40 40 40 38 39 39 39 40 41 41 41
48 47 40 36 34 33 34 33 34 36 36 36 37 44 46 46 42 39 34 35 34 29 31 34 38 41 40 42 41 38 37 43 41 41 41 41 42 41 41 40 40 39 39 41
45 44 39 35 35 34 35 37 36 37 37 38 40 38 37 36 34 33 31 29 30 33 33 35 40 43 43 41 40 37 34 40 43 42 42 42 42 42 43 43 42 40 40 40
47 46 39 37 34 34 34 35 36 37 37 38 36 35 33 33 32 28 29 29 30 33 40 38 39 42 43 43 42 40 35 37 40 43 42 41 42 42 44 44 43 42 40 40
44 40 42 39 37 36 37 36 37 38 35 32 33 29 29 34 29 30 36 33 37 36 35 37 41 44 44 42 42 40 37 38 39 42 43 43 44 44 40 35 37 37 41 40

GFSNW_sfc_dewp_048.txt.gz
Dewpoint
52 53 52 51 51 49 46 35 19 33 36 30 31 27 30 32 24 23 23 22 21 19 19 19 20 18 17 25 25 19 24 20 19 10 5 10 14 27 26 23 28 26 25 23
52 52 52 51 50 50 43 35 31 35 35 30 30 31 29 30 28 27 27 24 23 23 22 21 19 19 17 25 23 22 26 21 16 4 3 10 12 14 24 28 29 30 26 26
52 52 52 51 51 50 44 36 31 34 35 35 33 31 30 28 29 29 31 30 29 26 24 22 22 20 23 26 23 34 26 18 19 7 8 12 20 21 22 26 26 27 27 29
52 52 53 52 51 50 44 37 34 35 31 31 32 32 31 29 30 30 30 30 30 31 30 26 23 23 24 26 30 32 29 29 22 18 17 16 14 10 18 26 30 29 28 28
52 52 53 52 52 50 41 37 38 36 34 35 33 33 32 31 34 34 31 32 31 35 37 31 28 29 27 26 30 30 29 28 23 19 17 17 14 10 9 17 24 28 30 31
52 52 52 52 51 50 41 41 41 41 36 34 35 34 37 36 36 36 36 36 37 35 37 38 39 35 37 37 32 32 33 31 27 18 15 12 10 12 15 14 21 26 28 32
52 52 52 52 52 50 46 46 46 41 34 36 35 37 34 34 36 35 34 35 36 35 37 37 35 35 35 34 31 27 32 34 33 20 16 17 15 15 16 17 18 26 30 33
52 52 52 52 52 52 50 50 47 43 38 37 35 38 36 35 36 35 33 33 35 36 35 35 35 28 29 28 28 29 31 35 30 27 23 20 21 23 28 19 20 28 33 34
52 52 52 52 52 52 52 51 51 46 41 37 39 38 38 36 36 37 33 35 37 38 39 37 30 30 30 26 26 26 31 35 34 30 24 22 27 34 35 38 31 42 43 42
52 52 52 52 52 52 51 51 52 46 43 39 40 39 39 39 38 37 37 36 36 39 37 34 33 32 35 30 31 30 33 36 31 28 27 27 28 34 37 36 39 43 44 48
52 52 52 52 52 53 51 50 52 49 44 41 40 41 41 41 41 38 39 36 39 38 35 35 35 34 35 33 35 32 31 31 30 31 28 25 38 37 37 44 43 43 44 47
52 52 53 52 52 53 51 48 53 52 47 42 44 43 43 44 45 44 42 38 39 40 36 37 36 34 37 35 32 36 32 35 34 33 34 40 39 39 46 44 46 44 43 45
52 52 53 52 53 53 51 49 49 49 43 41 39 38 43 44 42 47 44 41 41 43 43 40 37 34 36 33 35 35 36 37 35 34 37 37 40 43 46 47 45 45 45 44
52 52 52 52 52 53 52 49 48 46 43 38 36 41 41 42 42 43 43 43 43 42 40 39 39 36 38 36 36 34 36 38 36 35 36 39 42 42 46 45 46 45 44 46
51 52 52 52 52 53 52 50 49 48 43 38 35 39 40 42 43 41 41 40 40 38 37 35 36 38 37 39 39 36 40 37 35 34 39 39 39 45 46 45 44 45 45 45
51 52 51 52 53 53 50 48 49 48 48 43 39 40 43 42 46 42 41 40 40 37 36 36 35 38 40 37 35 40 40 41 42 39 43 44 45 45 45 44 46 46 46 47
50 52 51 51 52 51 47 45 47 48 48 42 43 44 46 44 46 43 41 43 39 37 36 34 37 37 40 38 35 39 39 38 41 42 42 40 42 42 44 45 44 46 46 44
50 52 50 51 52 50 47 49 49 48 44 43 44 44 46 45 45 44 43 41 40 36 36 36 33 35 38 37 35 39 38 37 37 40 42 42 42 43 43 44 45 45 47 47
51 52 51 50 48 48 48 50 49 48 45 44 45 45 43 46 45 44 42 41 43 39 41 41 40 40 35 38 38 39 39 37 36 38 39 39 39 39 40 42 42 41 42 44
52 50 47 48 49 51 51 48 46 45 44 43 44 46 45 44 43 41 40 38 36 39 37 39 40 38 36 36 37 41 41 38 36 35 36 36 38 38 39 40 42 42 42 43
49 47 47 50 51 49 47 45 43 43 43 44 44 45 42 45 43 39 40 37 40 36 37 39 39 37 39 37 36 41 41 39 37 36 36 36 37 37 37 38 41 41 42 41
49 50 50 50 48 46 42 39 37 38 35 37 37 40 44 47 46 44 41 38 40 32 36 36 36 40 39 37 35 37 40 40 38 38 38 37 37 37 37 37 37 40 41 41
51 50 49 46 44 39 32 40 37 30 32 33 35 37 45 47 44 44 42 35 33 36 33 35 39 37 36 37 35 34 38 41 40 39 38 38 38 39 39 38 37 38 39 42
48 46 41 38 35 34 34 33 33 32 35 33 35 41 46 46 43 40 35 34 34 28 34 34 32 40 39 37 36 35 33 36 39 39 39 39 38 39 39 39 38 37 38 40
46 45 39 36 35 35 35 36 36 34 36 35 37 38 39 36 34 32 30 29 30 34 34 32 34 41 42 39 36 34 33 33 37 39 38 39 39 38 37 38 37 38 39 39
47 46 40 37 36 33 33 35 36 37 36 38 36 34 32 32 31 28 29 30 31 33 37 34 35 42 41 41 39 37 33 34 34 36 36 35 35 34 35 33 33 35 38 39
45 39 39 40 39 37 37 38 37 41 36 36 41 35 30 34 32 36 37 36 37 34 32 32 42 42 40 39 38 37 35 34 35 35 35 35 34 33 31 32 34 33 37 39